www.pogodaiklimat.ru

Погода и климат >> Архив погоды >> Россия >> Приморский край >> Рудная Пристань


ПОГОДА в Рудной Пристани

  • Прогноз погоды в Рудной Пристани
  • Монитор погоды в Рудной Пристани
  • Климат города

АРХИВ ПОГОДЫ в Рудной Пристани

Время (UTC), дата Ветер
(напр.,м/с)
 
Видим.   Явления Облачность Т
(С)
Тd
(С)
f
(%)
Тe
(С)
Тes
(С)
Комфортность P
(гПа)
Po
(гПа)
Тmin
(С)
Tmax
(С)
R
(мм)
R24
(мм)
S
(см)
18 19.06 ЮВ 1 20 км {гроза, ливн. осадки} 10/8 300 м
[St As op]
+8.7 +8.4 98 +8 +8 1009.8 1005.7
21 19.06 З 2 20 км 10/10 300 м
[St]
+9.1 +8.8 98 +7 +7 1010.3 1006.1 +8.7 3
00 20.06 ЮЗ 1 20 км 10/8 300 м
[St As op]
+10.8 +10.4 97 +10 +11 1011.1 1007.0
03 20.06 ЮВ 2 20 км 10/8 300 м
[St As trans]
+11.2 +9.4 89 +10 +12 1011.2 1007.1
06 20.06 ЮВ 3 20 км 10/10 300 м
[St]
+11.3 +9.3 87 +9 +9 1011.0 1006.9
09 20.06 ЮВ 2 20 км 10/8 300 м
[St As op]
+9.4 +8.7 95 +8 +8 1011.4 1007.3 +11.9
12 20.06 Ю 2 20 км 10/10 300 м
[St]
+9.2 +8.7 97 +7 +7 1012.8 1008.7
15 20.06 ЮЗ 1 20 км 10/8 300 м
[Sc As op]
+9.4 +8.9 97 +9 +9 1012.3 1008.2
18 20.06 штиль 0 20 км 10/8 600 м
[Sc As op]
+9.8 +9.3 97 +9 +9 1011.7 1007.6
21 20.06 штиль 0 20 км 10/10 300 м
[St]
+9.8 +9.4 97 +9 +9 1011.5 1007.4 +8.9
00 21.06 В 2 20 км 10/10 600 м
[Sc]
+10.8 +9.8 94 +9 +9 1011.2 1007.1
03 21.06 В 2 20 км 10/8 300 м
[Sc As trans]
+10.4 +9.2 92 +9 +10 1009.9 1005.8
06 21.06 ЮВ 2 20 км 10/8 300 м
[Sc As trans]
+10.8 +9.3 90 +9 +10 1007.4 1003.3
09 21.06 В 2 20 км 10/8 600 м
[Sc As op]
+10.0 +9.0 93 +8 +8 1007.3 1003.3 +12.1
12 21.06 СЗ 1 20 км 10/8 600 м
[Sc As op]
+10.3 +9.4 94 +10 +10 1006.0 1002.0
15 21.06 ЮВ 2 20 км 10/8 600 м
[Sc As op]
+10.3 +9.5 95 +9 +9 1006.7 1002.7
18 21.06 ЮВ 1 20 км 10/8 300 м
[Sc As op]
+9.7 +9.1 96 +9 +9 1006.2 1002.1
21 21.06 З 2 20 км 10/8 600 м
[Sc As op]
+11.5 +10.5 94 +10 +10 1005.2 1001.2 +9.6
00 22.06 В 3 20 км 10/3 600 м
[Sc Cs]
+11.9 +10.0 88 +10 +16 1005.2 1001.2
03 22.06 В 3 20 км 10/3 600 м
[Cu med, cong Cs]
+13.6 +10.6 82 +12 +21 1004.7 1000.6
06 22.06 В 3 20 км 10/3 600 м
[Cb cap Cs]
+13.4 +10.5 83 +12 +18 1003.7 999.7
09 22.06 В 3 20 км {гроза} 10/8 600 м
[Cb cap Cs]
+11.7 +9.7 88 +10 +10 1005.2 1001.1 +14.5
12 22.06 В 1 20 км {гроза, ливн. осадки} 6/6 600 м
[Cb cap]
+11.4 +10.7 95 +11 +11 1005.5 1001.4
15 22.06 штиль 0 20 км ясно +11.8 +11.4 97 +11 +11 1005.8 1001.8
18 22.06 З 1 20 км ясно +16.7 +14.8 89 +18 +18 1005.5 1001.5
21 22.06 З 3 20 км 1/0
[Ac lent]
+15.1 +13.9 93 +14 +16 1006.0 1002.0 +11.1 0.0
00 23.06 Ю 1 20 км 1/0
[Ci sp]
+24.2 +15.8 59 +27 +42 жарко 1005.5 1001.6
03 23.06 В 3 20 км ясно +20.1 +13.3 65 +22 +39 комфорт 1004.4 1000.5
06 23.06 В 3 20 км 3/1 600 м
[Cu hum Ci fib]
+19.7 +12.9 65 +22 +30 комфорт 1003.3 999.3
09 23.06 В 3 20 км 6/3 600 м
[Cu med, cong Ac trans Ci fib]
+16.2 +11.8 75 +16 +17 1003.2 999.3 +24.7
12 23.06 СВ 1 20 км 10/3 600 м
[Cb cap Ci sp]
+12.5 +11.9 96 +12 +12 1004.2 1000.2
15 23.06 З 1 20 км 10/6 300 м
[Cb cap Ac trans Ci sp]
+11.4 +11.0 97 +11 +11 1004.0 1000.0
18 23.06 З 3 20 км в посл. час гроза {ливн. осадки} 10/8 600 м
[Cb cap As op]
+13.1 +12.7 97 +12 +12 1002.0 998.0
21 23.06 В 2 20 км 10/6 600 м
[Cb cap Ci]
+13.0 +12.7 98 +12 +13 1002.4 998.4 +11.4 1
00 24.06 В 1 20 км 9/6 600 м
[Cb cap Ac trans]
+13.2 +12.5 96 +13 +16 1004.3 1000.3
03 24.06 В 4
{10}
20 км 10/8 600 м
[Cb cap As trans]
+13.7 +11.0 84 +12 +13 1004.3 1000.3
06 24.06 В 3
{10}
20 км 10/8 600 м
[Cb cap As op]
+13.5 +10.1 80 +12 +13 1004.9 1000.9
09 24.06 СВ 1 20 км в посл. час ливневой дождь 10/8 600 м
[Cb cap As op]
+11.7 +9.2 85 +12 +12 1005.2 1001.2 +14.3 0.0
12 24.06 В 4 4000 м ливневой дождь 10/8 600 м
[Cb cap As op]
+10.4 +8.3 87 +8 +8 1006.5 1002.5
15 24.06 В 2 20 км {ливн. осадки} 10/8 600 м
[Cb cap As op]
+10.7 +7.6 81 +9 +9 1007.0 1002.9
18 24.06 штиль 0 20 км {ливн. осадки} 10/8 600 м
[Cb cap As trans]
+9.9 +9.4 97 +9 +9 1006.5 1002.4
21 24.06 ЮЗ 1 20 км 10/8 600 м
[Cb cap As op]
+10.4 +9.5 94 +10 +10 1007.1 1003.1 +9.8 2
00 25.06 В 1 20 км 10/8 600 м
[Cb cap As op]
+11.1 +8.4 83 +11 +11 1007.5 1003.4
03 25.06 В 3
{10}
20 км 10/8 600 м
[St As op]
+11.4 +8.2 81 +10 +10 1008.0 1003.9
06 25.06 В 3
{10}
20 км 8/6 600 м
[Cb cap Ac trans]
+13.0 +8.0 72 +12 +15 1008.1 1004.1
09 25.06 В 3 20 км 8/4 600 м
[Cb cap Ac trans]
+11.1 +7.5 78 +9 +10 1008.6 1004.5 +13.4
12 25.06 СЗ 1 20 км 8/6 600 м
[Cb cap Ac trans]
+9.8 +7.0 83 +9 +9 1010.0 1005.9
15 25.06 СЗ 1 20 км 10/8 600 м
[Cb cap As op]
+10.2 +7.3 82 +10 +10 1009.8 1005.7
18 25.06 штиль 0 20 км 10/8 600 м
[Cb cap As op]
+9.9 +8.8 93 +9 +9 1009.8 1005.7
21 25.06 ЮЗ 1 20 км 8/6 600 м
[Cb cap Ac trans]
+10.5 +9.4 93 +10 +11 1009.8 1005.7 +9.8
00 26.06 ЮВ 2 20 км 3/3 600 м
[Sc Ci fib]
+12.8 +8.3 74 +12 +21 1009.9 1005.8
03 26.06 В 3 20 км 3/3 600 м
[Cu med, cong Ci sp]
+12.9 +8.0 72 +12 +23 опасность
простуды
1009.1 1005.0
06 26.06 В 3 20 км 3/1 600 м
[Cu hum Ci fib]
+12.8 +8.3 74 +11 +20 1008.2 1004.1
09 26.06 В 1 20 км 8/6 600 м
[Cb cap Ci sp]
+11.5 +8.5 82 +11 +12 1007.6 1003.5 +13.6
12 26.06 СВ 2 20 км 10/10 600 м
[Cb cap]
+11.1 +9.0 87 +10 +10 1008.7 1004.6
15 26.06 СВ 1 20 км 9/8 600 м
[Cb cap Ac trans]
+10.7 +9.1 90 +10 +10 1009.5 1005.4

 

Местоположение метеостанции Рудная Пристань (Приморский край, Россия): широта 44.37 долгота 135.80 высота над уровнем моря 34 м.

В архиве по умолчанию представлена погода в Рудной Пристани за последнюю неделю. Архивные данные за месяц целиком и за предыдущие месяцы, начиная с января 2011 года, Вы можете получить, выбрав интересующий диапазон дат из раскрывающегося списка и нажав кнопку "Ввод!".

Внимание! Время в таблицах - всемирное. Для получения местного времени необходимо прибавить поправку, которая в Рудной Пристани равна 10 ч.

Смотрите также архив погоды в соседних городах и на ближайших метеорологических станциях:

Погода в Богополе (Приморский край, Россия) (35 км)
Погода в Кавалерово (Приморский край, Россия) (65 км)
Погода в Ольге (Приморский край, Россия) (80 км)
Погода в Тернее (Приморский край, Россия) (94 км)
Погода в Мельничном (Приморский край, Россия) (122 км)
Погода в Малой Кеме (Приморский край, Россия) (154 км)
Погода в Чугуевке (Приморский край, Россия) (161 км)
Погода в Малиново (Приморский край, Россия) (172 км)
Погода в Глубинном (Приморский край, Россия) (193 км)
Погода в Лазо (Приморский край, Россия) (193 км)

Пояснения к столбцам:

Ветер - указаны скорость ветра в м/с - средняя за 10 мин, порывы в срок и между сроками (в фигурных скобках) и направление, откуда дует ветер: С - северный, СВ - северо-восточный, В - восточный, ЮВ - юго-восточный, Ю - южный, ЮЗ - юго-западный, З - западный, СЗ - северо-западный.
Видимость - горизонтальная дальность видимости в метрах или километрах. При видимости от 1 до 10 км при отсутствии осадков обычно наблюдается дымка, при ухудшении видимости до 1 км и менее - туман. В сухую погоду видимость может ухудшаться дымом, пылью или мглою.
Явления - указаны атмосферные явления, наблюдавшиеся в срок или в последний час перед сроком; фигурными скобками обозначены явления, наблюдавшиеся между сроками (за 1-3 часа до срока); квадратными скобками обозначены град или гололедные отложения с указанием их диаметра в мм.
Облачность - указаны через наклонную черту общая и нижняя облачность в баллах и высота нижней границы облаков в метрах; квадратными скобками обозначены формы облаков: Ci - перистые, Cs - перисто-слоистые, Cc - перисто-кучевые, Ac - высококучевые, As - высокослоистые, Sc - слоисто-кучевые, Ns - слоисто-дождевые, Cu - кучевые, Cb - кучево-дождевые. Подробнее классификацию облаков см. в Атласе облаков (PDF).
T - Температура воздуха - температура, измеренная на высоте 2 м над землей.
Td - Температура точки росы - температура, при понижении до которой содержащийся в воздухе водяной пар достигнет насыщения.
f - Относительная влажность воздуха - влажноcть воздуха, измеренная на высоте 2 м над землей.
Te - Эффективная температура - температура, которую ощущает одетый по сезону человек в тени. Характеристика душности погоды. При расчете учитывается влияние влажности воздуха и скорости ветра на теплоощущения человека.
Tes - Эффективная температура на солнце - температура, которую ощущает человек, с поправкой на солнечный нагрев. Характеристика знойности погоды. Зависит от высоты солнца над горизонтом, облачности и скорости ветра. Ночью, в пасмурную погоду, а также при ветре 12 м/с и более поправка равна нулю.
P - Атмосферное давление - приведенное к уровню моря атмосферное давление.
Po - Атмосферное давление - измеренное на уровне метеостанции атмосферное давление.
Tmin - Минимальная температура - минимум температуры воздуха на высоте 2 м над землей.
Tmax - Максимальная температура - максимум температуры воздуха на высоте 2 м над землей.
R - Количество осадков - Количество выпавших осадков за период времени, мм. При наведении курсора мыши на число - период времени, за который выпало указанное количество осадков.
R24 - Количество осадков - Количество выпавших осадков за 24 часа, мм.
S - Снежный покров - Высота снежного покрова, см. При наведении курсора мыши на число - состояние снежного покрова и степень покрытия местности в баллах.